Weather History for KPTS - March, 2014

Change the Weather History Date:

Tuesday, March 11, 2014

  Actual Average (KJLN) Record (KJLN)
Temperature  
Mean Temperature 62 °F 47 °F  
Max Temperature 77 °F 58 °F 85 °F (1967)
Min Temperature 43 °F 36 °F -5 °F (1948)
Degree Days  
Heating Degree Days 3 18  
Month to date heating degree days 213  
Since 1 July heating degree days 3467  
Cooling Degree Days 0 0  
Month to date cooling degree days 0  
Year to date cooling degree days 1  
Growing Degree Days 12 (Base 50)    
Moisture  
Dew Point 46 °F    
Average Humidity 57    
Maximum Humidity 81    
Minimum Humidity 40    
Precipitation  
Precipitation 0.00 in 0.10 in 1.94 in (1990)
Month to date precipitation 1.13  
Year to date precipitation 5.48  
Sea Level Pressure  
Sea Level Pressure 29.58 in    
Wind  
Wind Speed 14 mph (SSW)    
Max Wind Speed 24 mph    
Max Gust Speed 36 mph    
Visibility 10 miles    
Events      
T = Trace of Precipitation, MM = Missing Value Source: NWS Daily Summary

Daily Weather History Graph

Daily Weather History Graph

Search for Another Location

Airport or City:

Trip Planner

Search our weather history database for the weather conditions in past years. The results will help you decide how hot, cold, wet, or windy it might be!

Date:

Astronomy

Mar. 11, 2014 Rise Set
Actual Time 7:35 AM CDT 7:22 PM CDT
Civil Twilight 7:09 AM CDT 7:48 PM CDT
Nautical Twilight 6:39 AM CDT 8:18 PM CDT
Astronomical Twilight 6:09 AM CDT 8:49 PM CDT
Moon 3:03 PM CDT (3/11) 4:25 AM CDT (3/11)
Length of Visible Light 12h 38m
Length of Day
11h 46m
Waxing Gibbous, 78% of the Moon is Illuminated
Mar 11
Waxing Gibbous
Mar 16
Full
Mar 23
Last Quarter
Mar 30
New
Apr 7
First Quarter

Hourly Weather History & Observations

Time (CDT) Temp. Windchill Dew Point Humidity Pressure Visibility Wind Dir Wind Speed Gust Speed Precip Events Conditions
12:15 AM 56.3 °F - 35.1 °F 45% 29.73 in 10.0 mi SSW 13.8 mph - N/A   Clear
12:35 AM 57.7 °F - 36.3 °F 45% 29.72 in 10.0 mi SW 12.7 mph - N/A   Clear
12:55 AM 58.3 °F - 36.5 °F 44% 29.72 in 10.0 mi SW 15.0 mph 19.6 mph N/A   Clear
1:15 AM 58.3 °F - 36.9 °F 45% 29.71 in 10.0 mi SW 15.0 mph 21.9 mph N/A   Clear
1:35 AM 56.8 °F - 36.5 °F 47% 29.71 in 10.0 mi SW 12.7 mph - N/A   Clear
1:55 AM 56.1 °F - 36.5 °F 48% 29.70 in 10.0 mi SSW 13.8 mph - N/A   Clear
2:15 AM 55.8 °F - 36.3 °F 48% 29.70 in 10.0 mi SSW 13.8 mph 19.6 mph N/A   Clear
2:35 AM 55.8 °F - 37.4 °F 50% 29.70 in 10.0 mi SSW 10.4 mph - N/A   Clear
2:55 AM 54.1 °F - 37.0 °F 52% 29.70 in 10.0 mi SSW 9.2 mph - N/A   Clear
3:15 AM 53.2 °F - 37.0 °F 54% 29.69 in 10.0 mi SSW 10.4 mph 16.1 mph N/A   Clear
3:35 AM 53.2 °F - 37.9 °F 56% 29.68 in 10.0 mi SSW 9.2 mph - N/A   Clear
3:55 AM 53.2 °F - 38.7 °F 58% 29.67 in 10.0 mi South 9.2 mph - N/A   Clear
4:15 AM 53.2 °F - 39.4 °F 59% 29.65 in 10.0 mi SSW 10.4 mph - N/A   Clear
4:35 AM 53.2 °F - 40.3 °F 61% 29.64 in 10.0 mi SSW 9.2 mph - N/A   Clear
4:55 AM 52.3 °F - 40.3 °F 64% 29.64 in 10.0 mi SSW 8.1 mph - N/A   Clear
5:15 AM 50.9 °F - 40.1 °F 67% 29.64 in 10.0 mi South 8.1 mph - N/A   Clear
5:35 AM 51.3 °F - 41.0 °F 68% 29.63 in 10.0 mi SSW 10.4 mph - N/A   Clear
5:55 AM 51.4 °F - 42.3 °F 71% 29.63 in 10.0 mi SSW 9.2 mph - N/A   Clear
6:15 AM 51.8 °F - 43.9 °F 74% 29.63 in 10.0 mi SSW 9.2 mph - N/A   Clear
6:35 AM 52.9 °F - 45.1 °F 75% 29.62 in 10.0 mi SSW 10.4 mph - N/A   Clear
6:55 AM 53.2 °F - 46.0 °F 77% 29.61 in 10.0 mi South 11.5 mph 16.1 mph N/A   Clear
7:15 AM 54.3 °F - 47.7 °F 78% 29.61 in 10.0 mi SSW 11.5 mph 18.4 mph N/A   Clear
7:35 AM 55.8 °F - 49.8 °F 80% 29.61 in 10.0 mi SSW 11.5 mph - N/A   Clear
7:55 AM 55.8 °F - 50.0 °F 81% 29.60 in 10.0 mi South 12.7 mph 16.1 mph N/A   Clear
8:15 AM 55.8 °F - 49.6 °F 80% 29.60 in 10.0 mi SSW 12.7 mph 17.3 mph N/A   Clear
8:35 AM 55.9 °F - 49.3 °F 78% 29.59 in 10.0 mi South 12.7 mph - N/A   Clear
8:55 AM 57.7 °F - 50.2 °F 76% 29.59 in 10.0 mi SSW 13.8 mph 18.4 mph N/A   Clear
9:15 AM 59.0 °F - 50.5 °F 73% 29.59 in 10.0 mi SSW 13.8 mph 20.7 mph N/A   Clear
9:35 AM 60.8 °F - 51.6 °F 72% 29.59 in 10.0 mi SSW 17.3 mph 23.0 mph N/A   Clear
9:55 AM 61.3 °F - 51.4 °F 70% 29.59 in 10.0 mi SSW 12.7 mph 23.0 mph N/A   Clear
10:15 AM 63.0 °F - 52.0 °F 67% 29.57 in 10.0 mi SSW 15.0 mph 18.4 mph N/A   Clear
10:35 AM 64.4 °F - 52.5 °F 65% 29.56 in 10.0 mi SSW 19.6 mph 25.3 mph N/A   Clear
10:55 AM 65.8 °F - 53.4 °F 64% 29.55 in 10.0 mi SSW 18.4 mph 25.3 mph N/A   Clear
11:15 AM 68.4 °F - 54.5 °F 61% 29.55 in 10.0 mi SSW 18.4 mph 23.0 mph N/A   Clear
11:35 AM 70.7 °F - 55.4 °F 58% 29.54 in 10.0 mi SSW 18.4 mph - N/A   Clear
11:55 AM 70.9 °F - 55.2 °F 58% 29.54 in 10.0 mi SSW 19.6 mph 24.2 mph N/A   Clear
12:15 PM 70.9 °F - 54.5 °F 56% 29.53 in 10.0 mi SSW 24.2 mph 29.9 mph N/A   Clear
12:35 PM 71.4 °F - 54.0 °F 54% 29.53 in 10.0 mi SSW 21.9 mph 29.9 mph N/A   Clear
12:55 PM 70.9 °F - 52.5 °F 52% 29.52 in 10.0 mi SSW 19.6 mph 26.5 mph N/A   Clear
1:15 PM 72.7 °F - 53.6 °F 51% 29.51 in 10.0 mi SSW 18.4 mph 25.3 mph N/A   Clear
1:35 PM 75.0 °F - 54.7 °F 49% 29.50 in 10.0 mi SSW 17.3 mph 26.5 mph N/A   Clear
1:55 PM 74.5 °F - 53.1 °F 47% 29.48 in 10.0 mi South 18.4 mph 24.2 mph N/A   Clear
2:15 PM 76.1 °F - 52.3 °F 43% 29.47 in 10.0 mi South 21.9 mph 27.6 mph N/A   Clear
2:35 PM 76.6 °F - 51.3 °F 41% 29.45 in 10.0 mi South 21.9 mph 27.6 mph N/A   Clear
2:55 PM 77.7 °F - 51.6 °F 40% 29.44 in 10.0 mi South 18.4 mph 23.0 mph N/A   Clear
3:15 PM 77.7 °F - 51.6 °F 40% 29.45 in 10.0 mi SSW 18.4 mph 26.5 mph N/A   Clear
3:35 PM 77.5 °F - 51.4 °F 40% 29.44 in 10.0 mi SSW 17.3 mph 25.3 mph N/A   Clear
3:55 PM 77.9 °F - 52.2 °F 41% 29.45 in 10.0 mi SSW 20.7 mph - N/A   Clear
4:15 PM 76.1 °F - 50.5 °F 41% 29.45 in 10.0 mi SSW 16.1 mph 23.0 mph N/A   Clear
4:35 PM 76.1 °F - 50.9 °F 41% 29.45 in 10.0 mi SSW 17.3 mph 23.0 mph N/A   Clear
4:55 PM 76.1 °F - 52.3 °F 43% 29.45 in 10.0 mi SSW 16.1 mph 20.7 mph N/A   Clear
5:15 PM 76.3 °F - 52.5 °F 43% 29.45 in 10.0 mi SSW 15.0 mph - N/A   Scattered Clouds
5:35 PM 76.1 °F - 53.1 °F 45% 29.45 in 10.0 mi SW 9.2 mph - N/A   Scattered Clouds
5:55 PM 76.1 °F - 53.4 °F 45% 29.44 in 10.0 mi SSW 10.4 mph - N/A   Scattered Clouds
6:15 PM 76.1 °F - 52.7 °F 44% 29.44 in 10.0 mi SSW 15.0 mph 20.7 mph N/A   Scattered Clouds
6:35 PM 76.1 °F - 52.5 °F 44% 29.44 in 10.0 mi SSW 12.7 mph 19.6 mph N/A   Scattered Clouds
6:55 PM 75.6 °F - 52.3 °F 44% 29.44 in 10.0 mi SSW 11.5 mph 18.4 mph N/A   Clear
7:15 PM 73.0 °F - 50.4 °F 45% 29.44 in 10.0 mi South 10.4 mph 17.3 mph N/A   Clear
7:35 PM 71.2 °F - 49.8 °F 47% 29.45 in 10.0 mi SSW 11.5 mph - N/A   Clear
7:55 PM 70.3 °F - 50.5 °F 49% 29.49 in 10.0 mi NW 13.8 mph 23.0 mph N/A   Mostly Cloudy
8:15 PM 61.7 °F - 44.1 °F 52% 29.51 in 10.0 mi NNW 16.1 mph 28.8 mph N/A   Mostly Cloudy
8:35 PM 58.3 °F - 43.2 °F 57% 29.55 in 10.0 mi NNW 18.4 mph 29.9 mph N/A   Mostly Cloudy
8:55 PM 57.7 °F - 42.4 °F 57% 29.57 in 10.0 mi North 18.4 mph 28.8 mph N/A   Mostly Cloudy
9:15 PM 55.9 °F - 41.0 °F 57% 29.60 in 10.0 mi North 17.3 mph 27.6 mph N/A   Scattered Clouds
9:35 PM 54.7 °F - 40.5 °F 59% 29.63 in 10.0 mi North 20.7 mph 28.8 mph N/A   Mostly Cloudy
9:55 PM 52.2 °F - 38.5 °F 60% 29.67 in 10.0 mi North 15.0 mph 35.7 mph N/A   Scattered Clouds
10:15 PM 50.9 °F - 37.8 °F 61% 29.69 in 10.0 mi North 24.2 mph 35.7 mph N/A   Mostly Cloudy
10:35 PM 50.9 °F - 38.7 °F 63% 29.72 in 10.0 mi North 18.4 mph 29.9 mph N/A   Overcast
10:55 PM 50.7 °F - 40.1 °F 67% 29.75 in 10.0 mi North 18.4 mph 33.4 mph N/A   Overcast
11:15 PM 48.6 °F - 38.5 °F 68% 29.78 in 10.0 mi North 24.2 mph 33.4 mph N/A   Overcast
11:35 PM 47.3 °F - 37.6 °F 69% 29.79 in 10.0 mi North 20.7 mph 31.1 mph N/A   Overcast
11:55 PM 43.7 °F 36.9 °F 35.4 °F 73% 29.83 in 10.0 mi North 13.8 mph 29.9 mph N/A   Overcast